User: anonymous   Login
Location: Prairie State College
(41.5244°N, 87.6382°W)
Time: 22:26:53
(UTC-06:00)
Language:

Cosmos 1140 Rocket - Orbit

View from above orbital plane
View from above orbital plane
View from above satellite
View from above satellite

Ground track
Ground track

The orbit data is extracted from the following two-line orbital elements,

1 11574U 79089B   15059.04328168  .00000223  00000-0  78460-4 0  9999
2 11574 074.0718 329.5998 0014786 089.0152 271.2697 14.40410123856174
Epoch (UTC): 28 February 2015 01:02:19
Eccentricity: 0.0014786
inclination: 74.0718°
perigee height: 746 km
apogee height: 767 km
right ascension of ascending node: 329.5998°
argument of perigee: 89.0152°
revolutions per day: 14.40410123
mean anomaly at epoch: 271.2697°
orbit number at epoch: 85617

The dashed part of the orbit path shows where the satellite is in the earth's shadow,  

DLR